DMSP 5D-2 F13 DEB, 40497

Orbit data source: Space-Track

DMSP 5D-2 F13 DEB, 40497 is space debris in SSO originally from a launch on Fri, 24 Mar 1995 UTC launched from the Air Force Western Test Range (AFWTR). Debris objects in space refer to the collection of defunct objects orbiting the Earth. Examples of debris include non-operational satellites, rocket bodies, and fragments generated from explosions, collisions, or faulty payload assembly.

Loading next visibility...
Identifier
40497, 1995-015CL
Orbit
SSO
Country
Flag of USUS
Related business
Manufacturer
Unknown
Mission
Spacecraft
Bus & Motor
Unknown
Mass
Unknown
Launch date (UTC)
1995-03-24 (30 years ago)
Launch vehicle
Unknown
Launch site
Air Force Western Test Range (AFWTR)
Object type
Payload
Rocket body
Debris
Shape & HBR
Unknown
Radar Cross Section
Small (<0.1 m²)

Expand to show TLE details & history
Last TLE update: 4 days ago

TLE from 4 days ago
0 DMSP 5D-2 F13 DEB
1 40497U 95015CL  25254.93954489  .00003557  00000-0  11708-2 0  9992
2 40497  98.6931 287.5651 0005965 119.6088 240.5693 14.38821133545337
Epoch: 2025-09-11T22:32Z
TLE epoch observation values (Epoch: 2025-09-11T22:32:56.678Z)
Latitude
-0.0001°
Longitude
-41.86546°
Altitude
767.432 km
Speed
7.469 km/s
True Right ascension
19h 10m 15s
True Declination
0° 00' 00"
Sunlit
Object was in full shadow at epoch
Visualization orbit readout
Latitude
Unknown
Longitude
Unknown
Altitude
Unknown
Speed
Unknown
Apparent Right ascension
Unknown
Apparent Declination
Unknown
Sunlit
N/A
Visualization observer readout
Local Sidereal Time
07:23:21
Azimuth
Unknown
Elevation
Unknown
Doppler factor
Unknown
Orbital elements
Apogee altitude
763.786 km
Perigee altitude
755.271 km
Semi-major axis
7,137.666 km
Eccentricity
0.0006
Inclination
98.6931°
RAAN
287.5651°
Arg. of periapsis
119.6088°
True anomaly
240.50979°
Mean anomaly
240.5693°
Eccentric anomaly
240.53954°
Mean motion
3.59922 °/min
Orbital period
100.02 mins
BSTAR
0.0011708
Loading maneuver chart data...
Computing Atmospheric mass density...

Documentation

Showing up to 5 results
|